Theta_e
310 311 313 319 313 307 310 311 307 308 307 308 307 307 306 305 307 304 305 306 304 303 301 298 297 297 299 303 305 306 305 305 302 300 300 300 302 305 313 327 329 330 331 333 334 336 336 336 332
310 312 317 316 311 312 309 308 308 306 306 307 307 306 305 304 304 304 304 304 302 300 298 297 296 297 301 302 304 306 306 304 304 301 299 299 300 301 303 308 325 330 329 331 332 335 337 335 330
312 318 317 306 306 312 309 307 306 305 305 305 306 305 305 304 304 304 303 302 300 298 297 296 296 297 297 297 298 301 302 301 298 298 298 298 298 300 300 302 307 323 329 329 331 333 336 337 330
316 317 310 305 309 307 308 305 305 304 304 303 302 303 304 304 303 303 302 300 298 297 296 296 296 296 296 296 296 297 297 298 297 297 296 297 298 299 299 300 301 305 315 329 329 330 334 335 332
318 316 307 305 307 305 303 304 305 303 305 303 301 302 302 303 303 302 300 298 298 296 296 296 296 296 296 296 296 296 296 296 296 296 296 296 297 297 298 299 299 300 302 314 329 329 332 335 331
316 313 310 308 306 304 303 303 303 302 301 301 300 300 301 302 302 300 299 298 297 296 296 296 296 296 296 295 295 295 295 295 296 296 296 296 296 296 297 298 298 299 300 301 318 329 330 334 331
313 308 309 307 305 305 303 303 301 301 300 300 301 299 301 301 301 300 299 298 297 296 297 297 297 296 296 296 295 295 295 295 295 295 296 296 296 296 296 297 297 298 299 300 301 323 330 331 335
313 305 307 306 305 308 302 301 301 301 300 300 300 298 301 301 300 299 299 298 297 297 297 298 297 297 296 296 296 296 296 295 295 295 295 296 296 296 296 296 297 297 298 299 300 309 327 330 333
314 306 305 306 306 305 301 301 301 300 300 300 300 300 300 300 300 299 298 298 298 297 297 297 297 297 297 296 296 296 296 295 295 295 295 295 295 295 295 295 295 296 296 298 299 300 314 329 330
307 305 307 302 302 302 301 301 301 300 300 300 300 300 300 300 299 299 298 298 298 298 298 297 297 297 297 297 296 296 295 295 295 295 295 294 294 294 294 294 295 295 295 296 298 299 303 323 327
302 305 301 302 301 301 301 300 300 299 298 300 301 301 300 300 299 299 298 298 298 298 298 297 297 297 297 296 296 296 295 295 295 294 294 293 292 292 292 293 294 295 296 296 297 298 300 311 322
302 301 302 301 299 300 300 299 299 299 301 302 301 301 300 299 299 299 299 298 298 298 298 297 297 297 296 296 295 295 295 294 294 293 292 292 291 291 291 291 292 293 294 295 295 297 299 306 321
301 301 300 300 299 299 299 299 298 299 301 300 301 300 300 299 299 299 299 299 299 298 298 297 297 296 296 296 295 294 294 294 293 293 292 291 291 290 290 290 291 291 292 293 294 296 298 302 319
301 300 300 300 300 300 298 299 298 301 301 300 300 300 300 299 299 300 300 301 301 301 300 299 299 297 295 295 294 294 294 294 293 293 292 291 290 290 289 289 289 290 290 292 293 294 297 299 315
301 303 301 299 299 300 298 300 297 302 301 300 300 300 300 299 300 301 301 302 302 303 303 302 303 301 298 296 295 294 293 293 293 292 292 291 291 291 290 289 288 288 290 290 292 293 295 296 307
303 303 306 300 299 300 302 307 304 303 302 301 299 300 300 299 299 300 301 301 300 300 300 300 302 303 303 301 298 296 295 293 293 292 292 292 292 291 290 289 288 288 289 290 290 292 294 296 300
300 306 305 303 298 298 301 304 303 302 301 300 299 300 299 299 299 299 299 299 299 299 299 299 300 299 303 302 300 298 296 295 294 293 293 292 292 291 290 288 288 288 289 290 290 291 292 295 296
305 304 302 302 299 296 298 299 298 301 299 299 299 299 299 299 300 300 299 299 299 301 301 300 299 298 298 302 301 299 297 296 295 293 293 292 292 291 290 288 287 288 289 289 290 290 292 293 295
300 300 301 300 296 297 299 296 299 300 299 297 298 300 299 300 300 300 300 300 301 302 302 301 301 299 297 298 301 300 299 298 296 294 292 292 292 292 290 288 287 288 289 290 290 290 291 294 294
299 301 300 300 298 295 296 298 298 299 299 299 299 300 300 301 301 301 301 301 301 302 302 302 301 299 298 297 298 300 299 299 298 295 292 291 291 290 289 287 287 288 289 290 290 290 290 292 294
301 300 300 297 295 296 296 304 303 300 299 300 301 301 301 302 302 300 300 301 302 302 303 303 302 300 298 296 297 300 298 297 296 295 291 290 290 289 287 287 286 287 289 290 291 290 290 290 293
303 296 296 296 296 303 296 308 305 305 299 297 299 300 301 301 300 299 299 301 301 303 303 302 302 302 300 296 296 298 299 297 295 292 291 289 288 287 286 286 287 287 287 290 290 290 290 290 291
301 295 295 295 291 292 300 300 305 303 299 298 297 298 299 299 299 299 299 301 303 303 302 301 301 300 300 298 296 296 299 296 293 291 289 288 287 286 286 286 286 287 288 289 290 290 290 290 290
295 298 296 295 294 302 295 299 306 302 300 298 295 298 299 299 301 302 303 303 303 302 301 299 299 300 299 298 298 296 297 294 291 290 289 288 287 286 286 286 286 287 289 288 289 289 290 290 290
295 299 304 307 304 309 297 296 305 304 301 295 295 301 303 303 303 302 302 302 302 301 300 298 298 298 298 298 297 296 296 293 290 290 288 287 287 286 286 286 285 286 288 288 288 288 289 289 290
297 295 302 307 306 305 299 302 303 298 297 299 303 303 302 302 301 302 302 302 301 300 298 297 297 297 298 297 296 296 295 292 291 289 286 287 286 285 285 285 285 286 287 288 288 288 288 288 289
300 297 295 292 288 295 302 301 300 298 298 300 302 302 302 301 301 301 301 301 300 298 297 296 296 297 297 296 296 295 292 290 290 288 287 286 285 285 285 285 285 285 286 287 287 287 287 287 288
294 293 299 293 303 305 306 297 305 297 298 297 299 300 301 301 301 301 301 299 298 297 296 296 296 295 295 295 295 293 290 290 290 288 286 285 285 285 285 285 285 285 286 287 286 286 287 287 287
293 290 290 292 295 300 299 304 297 297 298 295 299 300 301 301 301 301 300 299 297 296 296 296 295 295 295 294 292 290 290 290 288 285 285 285 285 285 285 285 285 285 286 286 286 286 286 286 287
287 291 289 306 307 297 298 307 294 289 290 299 299 300 302 301 301 300 300 298 296 295 296 295 295 295 293 291 290 290 290 288 285 284 285 285 285 285 285 285 285 285 286 286 286 285 286 286 286
Wind_Speed
6 7 7 2 4 5 0 2 1 2 1 2 5 2 4 3 1 2 7 4 3 6 10 12 13 11 11 13 15 16 17 18 17 15 14 14 14 15 14 16 14 12 12 12 11 7 10 14 15
7 8 3 3 5 3 4 1 3 2 3 3 4 4 1 1 1 2 5 3 4 7 10 11 9 8 11 13 14 16 17 18 18 18 15 14 13 13 15 15 16 16 16 13 14 11 7 14 17
8 5 1 4 3 4 4 3 4 3 3 2 3 2 2 2 3 3 3 3 5 8 10 9 8 9 10 10 12 15 17 18 18 19 19 18 16 14 15 15 14 16 19 19 14 14 10 9 19
5 3 6 5 2 2 2 4 6 6 3 3 4 2 2 4 3 4 4 4 5 10 9 8 8 9 9 9 11 13 16 17 20 19 20 20 20 19 18 16 15 15 16 20 19 15 20 2 19
4 3 5 4 2 1 1 4 8 5 3 4 4 4 2 5 6 4 4 4 8 9 7 7 7 8 8 10 11 13 14 16 18 20 21 21 21 21 21 21 18 17 17 18 21 19 17 11 17
3 3 4 2 3 2 2 5 6 5 4 4 3 7 3 6 6 3 3 6 10 8 7 6 6 8 9 10 11 13 14 15 17 17 19 21 22 22 22 23 22 20 19 18 20 21 21 11 24
6 4 4 4 5 1 4 8 4 5 6 5 5 4 2 9 7 4 3 8 10 9 8 6 7 8 10 11 13 14 15 16 16 17 18 19 20 20 21 21 23 23 22 20 20 23 22 22 20
4 5 4 2 5 3 5 7 4 5 4 6 6 3 1 5 6 3 4 8 9 9 8 6 7 9 12 14 14 15 16 17 18 19 19 20 20 21 21 21 21 22 23 22 21 23 24 25 25
3 4 3 6 6 3 6 3 4 3 4 5 5 3 2 3 5 3 4 7 8 9 9 9 9 11 12 14 15 16 16 17 19 20 21 21 22 22 22 22 23 24 23 24 22 22 25 28 27
5 4 4 1 1 3 6 2 4 3 5 5 7 8 5 5 3 1 4 6 7 9 10 10 11 14 15 16 16 17 18 18 19 21 23 23 23 23 23 24 24 23 24 23 23 23 24 28 26
4 3 3 2 3 3 5 2 3 3 4 10 11 13 10 7 3 2 4 6 7 8 9 11 12 13 16 18 17 17 17 18 19 21 23 24 24 24 25 25 25 25 25 22 23 20 23 25 23
6 4 2 3 2 2 2 2 3 10 4 2 7 9 9 6 2 1 3 5 6 8 9 10 12 14 16 18 17 17 18 18 19 21 22 25 26 27 28 28 28 27 25 24 20 17 21 23 23
5 2 4 3 2 2 3 5 6 14 10 7 12 9 6 5 3 2 3 5 6 8 10 11 13 15 16 17 18 18 18 19 20 22 23 25 28 30 31 30 29 28 27 25 21 20 21 19 25
4 6 4 3 3 4 3 3 4 1 3 16 15 9 7 6 5 4 6 7 7 9 11 12 14 16 17 19 20 21 21 21 22 23 24 26 28 30 33 33 31 28 26 24 21 20 20 18 25
6 3 2 6 6 2 10 2 5 2 3 15 22 14 12 10 8 6 7 8 9 11 13 14 17 18 19 20 21 22 23 24 24 25 25 27 30 33 35 35 32 29 26 22 20 18 18 19 20
4 4 4 2 10 3 5 6 2 2 3 6 16 19 15 12 9 6 4 5 7 8 11 13 16 18 19 20 21 23 23 25 26 27 28 30 31 33 35 35 33 28 24 21 19 17 17 17 17
7 1 3 6 6 4 6 8 4 6 8 11 16 19 16 13 11 6 1 3 7 10 13 15 17 17 20 20 21 23 24 25 26 27 28 29 30 32 34 35 31 26 22 19 18 16 17 17 13
4 4 4 5 6 5 5 13 11 18 10 18 17 17 17 14 11 7 4 4 8 13 16 18 19 19 19 23 22 22 25 25 25 26 27 28 30 32 34 34 30 25 23 19 18 19 15 15 12
0 1 4 4 2 6 2 9 15 16 3 14 22 16 17 15 8 9 4 4 9 15 18 20 22 21 22 22 26 24 26 28 28 28 28 29 31 32 34 34 28 23 22 21 18 21 18 11 12
0 2 4 6 1 2 6 13 6 6 3 3 15 19 18 14 10 8 3 4 9 16 19 21 23 24 23 23 25 27 26 27 29 30 29 28 30 33 34 32 26 23 22 20 16 18 20 12 6
1 2 2 4 9 1 7 6 4 2 5 5 5 12 14 13 10 7 2 5 12 18 23 26 25 23 23 24 25 27 26 26 28 29 29 29 31 34 34 30 27 21 20 20 18 16 18 15 7
4 2 1 5 5 3 5 3 4 2 2 4 4 5 5 7 8 7 4 6 14 22 24 23 22 24 23 24 26 28 29 29 29 30 29 32 33 33 31 27 25 23 19 20 19 17 16 16 15
5 2 2 2 3 3 4 3 5 0 3 3 5 9 9 7 4 3 4 11 17 21 16 21 23 22 21 24 27 29 31 28 28 29 31 33 34 31 28 26 22 22 19 19 19 19 18 16 17
4 1 1 3 2 3 3 3 5 4 4 4 7 16 14 10 5 5 9 16 18 12 18 27 25 21 18 21 25 28 31 29 29 30 32 32 33 31 27 25 21 20 20 19 20 20 20 19 19
6 5 4 5 4 4 2 3 7 1 2 8 11 14 12 9 7 7 11 13 12 16 23 29 26 23 16 19 23 26 29 29 31 31 33 32 32 32 27 26 24 20 20 20 20 21 19 19 20
3 4 4 4 2 5 2 5 4 3 9 16 17 12 8 9 10 11 11 10 13 18 26 28 27 25 20 17 21 25 29 31 32 32 31 32 31 31 28 27 26 22 20 20 20 23 22 20 21
0 2 2 5 0 3 3 7 5 2 4 10 8 3 7 14 14 14 11 12 16 23 26 28 28 26 21 18 21 27 30 30 32 31 30 30 30 30 28 26 26 25 21 21 20 22 23 22 22
3 1 3 3 3 5 5 5 5 8 10 7 5 3 8 15 18 16 14 16 21 25 27 28 28 28 24 22 24 31 32 31 31 31 29 28 28 28 27 25 25 26 22 20 20 22 22 24 25
2 3 3 3 3 4 3 6 6 12 17 13 13 13 14 19 21 19 18 20 25 26 27 28 30 29 26 26 29 30 31 30 28 27 27 27 27 26 26 24 24 25 24 19 21 22 25 26 24
2 5 4 3 3 2 1 8 1 5 8 15 8 17 16 20 23 20 20 24 27 27 28 29 29 28 28 29 30 29 29 27 27 28 27 26 26 25 24 24 24 24 25 22 21 22 23 25 25
Wind_Direction
152 154 147 108 58 66 15 238 52 89 56 77 63 62 132 94 153 211 166 194 266 311 323 331 332 337 350 14 17 17 20 17 12 0 343 332 328 331 307 293 282 300 298 298 310 270 248 229 225
136 140 120 94 85 73 268 227 197 183 118 117 109 105 48 144 189 203 187 246 304 317 330 335 344 6 17 18 20 21 23 21 19 13 6 353 331 320 316 312 289 277 294 296 287 264 243 224 210
134 141 84 88 98 163 187 197 160 143 113 142 120 81 158 189 180 180 258 277 312 324 331 347 360 18 18 15 15 17 19 20 19 16 10 6 358 335 322 318 314 290 273 288 296 273 245 240 213
139 107 65 79 118 217 202 167 164 134 156 142 146 116 154 198 193 217 255 294 325 334 341 351 6 11 6 12 16 16 15 13 13 14 15 9 4 356 343 327 320 312 291 269 282 277 269 360 212
120 80 62 73 184 212 234 170 156 168 192 156 170 195 219 199 209 218 270 302 330 332 337 350 3 358 356 0 6 10 10 7 7 5 4 6 4 359 351 343 331 312 309 286 270 276 280 240 188
80 77 69 177 217 207 233 168 170 158 155 175 179 162 208 195 201 240 284 312 325 332 345 351 358 358 353 349 353 355 356 355 355 356 355 355 355 354 352 345 339 326 309 305 277 268 263 252 189
112 80 158 134 180 226 211 168 186 164 168 216 174 139 222 195 200 226 280 319 322 334 346 351 344 344 350 344 341 340 340 339 340 339 340 341 342 344 344 342 336 330 320 304 298 266 261 256 223
102 92 111 179 180 226 159 155 152 169 203 171 189 195 239 194 191 214 293 317 317 323 326 326 331 337 340 337 338 334 331 330 331 331 330 329 331 331 332 333 331 330 323 317 304 284 260 253 247
99 67 161 188 165 155 163 149 169 170 187 190 199 189 187 149 166 215 299 320 315 316 326 329 331 334 335 332 329 329 326 324 325 328 330 327 324 323 323 326 329 325 324 316 310 299 269 254 254
65 93 176 64 74 155 164 167 166 183 211 229 209 209 200 181 168 272 311 319 326 331 335 334 334 336 339 336 332 328 326 323 326 328 327 328 325 322 320 318 317 318 317 315 312 300 286 260 264
34 110 151 68 84 118 138 164 220 196 231 225 210 196 186 186 192 268 321 335 334 342 345 341 340 339 341 339 336 331 329 329 330 330 328 326 325 321 317 313 311 311 310 311 306 302 287 261 268
86 64 75 128 79 93 121 265 256 219 229 296 194 172 178 178 184 22 16 0 353 346 350 345 342 340 339 336 337 335 334 334 333 333 331 329 327 323 319 316 314 311 307 306 306 304 287 263 257
71 110 69 93 63 18 283 252 250 255 244 205 171 165 172 166 156 115 67 43 15 5 360 356 351 344 336 333 333 334 334 333 334 335 334 331 329 326 324 320 315 311 307 302 302 300 284 265 242
102 108 102 61 33 335 324 262 294 185 153 187 187 188 189 175 165 131 91 67 45 29 18 8 3 353 338 334 333 333 333 331 331 332 332 332 331 331 330 325 321 314 306 298 294 293 287 280 242
124 84 90 25 347 332 327 187 223 188 183 203 214 214 198 184 171 143 106 81 62 46 33 20 12 360 345 336 333 331 330 327 326 326 327 328 328 328 329 329 322 317 308 301 289 286 285 284 253
44 56 15 15 5 342 21 275 177 60 221 215 201 198 198 192 180 165 110 67 42 30 23 15 10 3 352 339 331 327 324 322 323 321 321 323 323 326 324 327 322 315 311 310 294 289 284 284 269
12 38 351 321 35 324 42 276 223 307 249 226 196 197 200 198 199 188 180 16 358 360 357 352 350 347 350 344 332 326 323 319 318 316 316 318 321 322 322 324 322 312 309 312 302 292 292 289 284
322 342 320 256 340 354 289 267 292 310 251 224 205 206 207 210 211 207 239 321 345 354 347 339 334 334 330 340 334 324 318 318 313 312 312 314 317 318 320 322 319 310 302 303 302 300 289 297 290
249 265 271 262 63 336 293 288 295 312 302 218 216 226 214 214 207 210 231 306 356 356 346 339 333 326 318 321 330 326 321 316 315 315 313 314 314 315 318 319 316 307 300 297 302 302 299 289 283
234 304 289 287 343 14 347 304 288 308 340 231 205 207 208 214 215 206 209 340 349 343 340 334 329 321 313 311 319 327 322 319 314 316 314 311 310 312 315 316 313 305 297 292 293 300 302 292 285
252 198 336 251 323 232 321 312 337 9 13 51 169 205 216 228 221 211 201 353 344 337 330 327 324 314 310 309 310 317 320 316 314 313 308 307 309 311 312 312 307 301 292 288 284 292 297 288 255
320 73 358 301 18 274 18 265 277 319 42 48 86 155 177 182 200 204 225 320 325 324 326 329 328 321 312 304 304 309 317 319 316 309 306 306 308 308 308 309 304 295 286 279 282 280 285 280 270
257 339 275 116 103 41 325 79 254 295 113 116 96 106 110 117 130 186 311 318 318 324 338 335 323 320 312 304 303 302 308 312 311 307 303 303 306 306 306 308 303 291 285 276 270 268 272 272 270
328 254 138 62 98 17 246 103 278 179 174 129 90 92 95 92 69 350 322 309 315 323 329 338 334 325 312 301 301 297 307 313 310 307 303 305 305 307 307 307 304 291 284 278 267 265 269 266 264
34 38 336 352 3 225 204 15 244 299 38 142 130 101 81 56 26 345 326 326 331 328 330 336 337 328 314 298 297 295 308 309 307 307 306 307 306 306 309 305 302 293 284 278 269 263 258 258 258
24 127 144 261 277 291 261 249 271 309 122 128 113 93 71 31 13 357 347 341 338 337 333 335 337 333 325 307 296 298 306 306 306 306 306 306 304 304 305 303 300 296 286 280 270 258 255 256 253
255 40 180 102 148 34 258 292 318 67 87 126 126 74 17 12 4 359 353 344 340 336 338 338 337 335 328 313 299 303 309 309 309 307 305 302 301 302 302 300 296 294 289 280 270 260 255 254 252
107 172 36 13 337 294 283 276 233 204 198 196 175 251 0 4 -0 354 345 339 338 339 339 338 340 336 330 316 309 312 313 313 308 305 305 304 302 301 301 297 293 292 288 278 268 252 251 251 250
34 5 30 124 133 205 292 259 210 198 204 199 211 1 349 354 352 343 333 333 337 337 337 337 338 333 328 319 314 314 314 313 308 307 307 306 304 304 301 298 293 289 288 279 270 256 249 249 249
130 196 152 124 249 208 218 269 156 224 212 175 250 340 341 343 341 334 327 331 334 332 334 334 332 330 328 321 318 316 317 314 312 311 311 310 308 306 303 299 293 289 285 281 271 263 252 253 252